This demonstration page uses our WeatherBlox Daily Observations layout. Learn more.

38.88101, -77.10428

Hourly Observations for August 13, 2016

Temp ( °F °C ) Dew Point ( °F °C ) Humidity (%) Winds ( mph kmh ) Pressure ( in mb ) Visibility ( mi km ) Precip ( " mm )
12:52 am 00:52 Clear 85 29.4 77 25 77 77 S 9 15 29.94 1014 8 12.874752 0 0
1:52 am 01:52 Clear 84 28.9 78 25.6 82 82 S 9 15 29.94 1014 10 16.09344 0 0
2:52 am 02:52 Clear 83 28.3 76 24.4 79 79 S 7 11 29.91 1013 10 16.09344 0 0
3:52 am 03:52 Clear 82 27.8 76 24.4 82 82 S 9 15 29.94 1014 10 16.09344 0 0
4:52 am 04:52 Clear 82 27.8 76 24.4 82 82 S 8 13 29.94 1014 10 16.09344 0 0
5:52 am 05:52 Clear 81 27.2 76 24.4 85 85 S 7 11 29.94 1014 10 16.09344 0 0
6:32 am 06:32 Mostly Sunny 81 27.2 76 24.4 85 85 SSW 7 11 29.94 1014 10 16.09344 0 0
6:52 am 06:52 Mostly Sunny 82 27.8 76 24.4 82 82 SSW 5 7 29.94 1014 10 16.09344 0 0
7:52 am 07:52 Mostly Sunny 84 28.9 76 24.4 77 77 SSW 7 11 29.97 1015 9 14.484096 0 0
8:52 am 08:52 Mostly Sunny 86 30 77 25 75 75 S 9 15 29.97 1015 10 16.09344 0 0
9:52 am 09:52 Mostly Sunny 88 31.1 77 25 70 70 S 10 17 29.94 1014 10 16.09344 0 0
10:52 am 10:52 Mostly Sunny 91 32.8 77 25 64 64 S 10 17 29.94 1014 10 16.09344 0 0
11:52 am 11:52 Partly Cloudy 94 34.4 78 25.6 60 60 S 12 19 29.94 1014 10 16.09344 0 0
12:52 pm 12:52 Mostly Sunny 95 35 77 25 56 56 S 15 24 29.91 1013 10 16.09344 0 0
1:52 pm 13:52 Partly Cloudy 96 35.6 77 25 54 54 S 13 20 29.91 1013 10 16.09344 0 0
2:52 pm 14:52 Partly Cloudy 98 36.7 77 25 51 51 S 14 22 29.88 1012 10 16.09344 0 0
3:52 pm 15:52 Partly Cloudy 98 36.7 77 25 51 51 S 14 22 29.88 1012 10 16.09344 0 0
4:52 pm 16:52 Partly Cloudy 100 37.8 74 23.3 43 43 SW 17 28 29.88 1012 10 16.09344 0 0
5:52 pm 17:52 Mostly Sunny 98 36.7 75 23.9 48 48 SSW 17 28 29.88 1012 10 16.09344 0 0
6:52 pm 18:52 Mostly Sunny 96 35.6 74 23.3 49 49 SSW 20 31 29.88 1012 10 16.09344 0 0
7:52 pm 19:52 Mostly Sunny 93 33.9 75 23.9 56 56 SSW 12 19 29.88 1012 10 16.09344 0 0
8:52 pm 20:52 Mostly Clear 92 33.3 76 24.4 60 60 SSW 13 20 29.91 1013 10 16.09344 0 0
9:52 pm 21:52 Mostly Clear 90 32.2 77 25 66 66 S 12 19 29.91 1013 10 16.09344 0 0
10:52 pm 22:52 Partly Cloudy 89 31.7 76 24.4 65 65 SSW 10 17 29.94 1014 10 16.09344 0 0
11:52 pm 23:52 Partly Cloudy 89 31.7 75 23.9 63 63 SSW 12 19 29.94 1014 10 16.09344 0 0

Powered by AerisWeather